Location: Kalispell
(48.1967°N, 114.3128°W)
Time: 02:08:56
(UTC-07:00)

Amateur Radio Satellites - All Passes

Search period start: 16 December 2017 01:38
Search period end: 17 December 2017 01:38
Location: Kalispell, 48.1967°N, 114.3128°W

Satellite Date Start Highest point End Downlink Frequencies (MHz)
Time Altitude Azimuth
SO-50 16 Dec 01:43:56 01:46:17 14° 250° (WSW) 01:48:38 436.795
AO-91 16 Dec 01:52:36 01:55:51 34° 98° (E) 01:58:57 145.960
50 SAT 16 Dec 01:53:55 01:56:53 37° 261° (W) 01:59:52 437.505
RS-15 16 Dec 01:54:57 02:04:00 28° 259° (W) 02:12:44 29.354- 29.394
QB50P2 16 Dec 02:02:19 02:05:15 18° 298° (WNW) 02:08:10 145.880/145.840
DUCHIFAT 1 16 Dec 02:04:36 02:07:56 23° 296° (WNW) 02:11:16 145.980
ITUPSAT 1 16 Dec 02:05:36 02:09:28 25° 62° (ENE) 02:13:21 437.325
VELOX 1 16 Dec 02:09:11 02:10:22 11° 273° (W) 02:11:32 145.980
Gurwin Techsat 1B 16 Dec 02:21:50 02:27:06 58° 101° (E) 02:32:20 435.225
CUBESAT XI-V 16 Dec 02:30:35 02:33:36 17° 59° (ENE) 02:36:37 437.345
NANOSAT C BR1 16 Dec 02:33:17 02:34:59 12° 302° (WNW) 02:36:41 145.865
UKube-1 16 Dec 02:37:40 02:41:29 30° 264° (W) 02:45:20 .
MOZHAYETS 4 16 Dec 02:38:23 02:42:53 64° 72° (ENE) 02:47:25
BUGSAT 1 16 Dec 02:38:42 02:42:24 35° 292° (WNW) 02:46:06 437.445
PCSat 16 Dec 02:40:07 02:45:09 37° 44° (NE) 02:50:10 145.827
DX 1 16 Dec 02:58:47 03:00:58 13° 271° (W) 03:03:09 434.975-435.025
Oscar 19 16 Dec 03:07:24 03:12:22 46° 292° (WNW) 03:17:18 437.125/150
YUBILEINY 16 Dec 03:11:45 03:20:22 62° 91° (E) 03:29:02 435.215
BEESAT 16 Dec 03:12:45 03:17:31 84° 256° (WSW) 03:22:18 436.000
AO-7 16 Dec 03:29:40 03:37:20 38° 97° (E) 03:44:57 .
AO-91 16 Dec 03:29:47 03:32:06 17° 297° (WNW) 03:34:21 145.960
M-CUBED/EXP-1 PRIME 16 Dec 03:30:17 03:33:23 18° 95° (E) 03:36:21 437.505
AO-85 16 Dec 03:34:34 03:36:08 11° 16° (NNE) 03:37:44 145.980
BEESAT 3 16 Dec 03:38:24 03:41:55 29° 40° (NE) 03:45:23 437.485
ITUPSAT 1 16 Dec 03:42:30 03:47:03 46° 261° (W) 03:51:39 437.325
Gurwin Techsat 1B 16 Dec 04:02:27 04:06:41 25° 300° (WNW) 04:10:53 435.225
CUBESAT XI-V 16 Dec 04:05:46 04:10:25 72° 258° (WSW) 04:15:08 437.345
KKS-1 16 Dec 04:16:44 04:20:48 35° 67° (ENE) 04:24:52 437.445
MOZHAYETS 4 16 Dec 04:17:40 04:20:29 16° 271° (W) 04:23:19
BEESAT 2 16 Dec 04:22:17 04:25:45 27° 39° (NE) 04:29:12 435.950
ITAMSAT 1 16 Dec 04:22:45 04:27:53 59° 102° (ESE) 04:32:59 435.822/435.867
PCSat 16 Dec 04:23:30 04:28:41 46° 244° (WSW) 04:33:49 145.827
DOVE 4 16 Dec 04:50:49 04:54:31 24° 92° (E) 04:58:02 437.250
BEESAT 16 Dec 04:54:47 04:56:02 11° 274° (W) 04:57:16 436.000
STARS 16 Dec 04:55:00 04:59:00 35° 67° (ENE) 05:03:00 437.465
M-CUBED/EXP-1 PRIME 16 Dec 05:03:39 05:08:08 58° 294° (WNW) 05:12:21 437.505
YUBILEINY 16 Dec 05:09:44 05:17:42 36° 295° (WNW) 05:25:44 435.215
STRAND 1 16 Dec 05:12:24 05:13:37 11° 51° (NE) 05:14:51 437.568
AO-85 16 Dec 05:13:52 05:17:58 30° 39° (NE) 05:22:20 145.980
BEESAT 3 16 Dec 05:15:51 05:19:32 38° 240° (WSW) 05:23:08 437.485
AO-7 16 Dec 05:22:17 05:30:28 60° 298° (WNW) 05:38:38 .
FO-29 16 Dec 05:32:58 05:36:18 13° 43° (NE) 05:39:37 435.910
XW-2C 16 Dec 05:38:20 05:40:08 13° 89° (E) 05:41:56 145.795 - 145.815
KKS-1 16 Dec 05:53:33 05:57:24 28° 265° (W) 06:01:15 437.445
BEESAT 2 16 Dec 05:59:47 06:03:40 47° 238° (WSW) 06:07:29 435.950
CUTE-I 16 Dec 06:01:08 06:05:13 22° 91° (E) 06:09:16 437.470
ITAMSAT 1 16 Dec 06:02:56 06:06:57 23° 301° (WNW) 06:10:57 435.822/435.867
HO-68 16 Dec 06:11:29 06:15:41 16° 86° (E) 06:19:50 435.675
NO-84 16 Dec 06:13:34 06:15:38 17° 131° (SE) 06:17:46 435.350 FM
LilacSat-2 16 Dec 06:15:34 06:19:10 34° 97° (E) 06:22:43 437.200
NUDT-PHONESAT 16 Dec 06:24:29 06:27:44 27° 95° (E) 06:30:59 437.300
XW-2D 16 Dec 06:27:26 06:31:09 44° 99° (E) 06:34:50 145.860 - 145.880
DOVE 4 16 Dec 06:28:10 06:32:22 38° 292° (WNW) 06:36:21 437.250
KAITUO 1B 16 Dec 06:31:13 06:34:43 34° 97° (E) 06:38:11 145.475/437.950
STARS 16 Dec 06:31:39 06:35:23 27° 265° (W) 06:39:09 437.465
M-CUBED/EXP-1 PRIME 16 Dec 06:40:42 06:41:31 10° 314° (NW) 06:42:20 437.505
XW-2B 16 Dec 06:43:18 06:47:09 65° 101° (ESE) 06:50:58 145.730 - 145.750
STRAND 1 16 Dec 06:46:45 06:51:47 60° 70° (ENE) 06:56:50 437.568
CUTE 1.7 + AOD 2 16 Dec 06:47:23 06:50:40 21° 92° (E) 06:53:55 437.475
XW-2F 16 Dec 06:53:48 06:57:39 81° 101° (E) 07:01:29 145.980 - 146.000
AO-85 16 Dec 06:53:59 06:58:39 57° 237° (WSW) 07:03:39 145.980
XW-2C 16 Dec 07:10:53 07:14:42 60° 287° (WNW) 07:18:29 145.795 - 145.815
FO-29 16 Dec 07:12:12 07:19:33 47° 64° (ENE) 07:26:51 435.910
AO-7 16 Dec 07:16:20 07:21:38 19° 320° (NW) 07:26:55 .
CUTE-I 16 Dec 07:40:24 07:45:40 60° 290° (WNW) 07:50:52 437.470
UWE-3 16 Dec 07:49:02 07:52:54 31° 96° (E) 07:56:51 435.000/436.395/437.385
NO-84 16 Dec 07:49:22 07:52:27 69° 332° (NNW) 07:55:47 435.350 FM
LilacSat-2 16 Dec 07:50:11 07:53:16 23° 294° (WNW) 07:56:20 437.200
CUBEBUG 2 16 Dec 07:52:58 07:57:11 58° 100° (E) 08:01:30 437.445
SEEDS 16 Dec 07:55:51 08:00:05 64° 101° (E) 08:04:17 437.485
HO-68 16 Dec 07:57:21 08:04:34 78° 105° (ESE) 08:11:44 435.675
NUDT-PHONESAT 16 Dec 07:58:20 08:01:31 26° 293° (WNW) 08:04:41 437.300
XW-2D 16 Dec 08:02:20 08:05:00 18° 297° (WNW) 08:07:40 145.860 - 145.880
XW-2A 16 Dec 08:04:27 08:07:34 32° 97° (E) 08:10:41 145.665 - 145.685
KAITUO 1B 16 Dec 08:05:32 08:08:31 22° 295° (WNW) 08:11:28 145.475/437.950
AAUSAT CUBESAT 2 16 Dec 08:09:17 08:13:14 39° 97° (E) 08:17:07 437.432
ZACube-1 16 Dec 08:10:00 08:13:49 29° 95° (E) 08:17:41 437.345
O/OREOS (USA 219) 16 Dec 08:15:43 08:19:53 36° 107° (ESE) 08:24:05 437.305
XW-2B 16 Dec 08:18:53 08:20:50 14° 299° (WNW) 08:22:46 145.730 - 145.750
CUTE 1.7 + AOD 2 16 Dec 08:22:36 08:26:41 44° 290° (WNW) 08:30:45 437.475
Oscar 11 16 Dec 08:26:39 08:30:17 25° 93° (E) 08:33:53 .
STRAND 1 16 Dec 08:27:34 08:31:22 21° 269° (W) 08:35:10 437.568
XW-2F 16 Dec 08:29:58 08:31:10 11° 301° (WNW) 08:32:21 145.980 - 146.000
TIGRISAT 16 Dec 08:38:54 08:42:27 27° 65° (ENE) 08:46:01 435.000
UNISAT 6 16 Dec 08:42:27 08:46:13 31° 67° (ENE) 08:49:59 437.425
AO-73 16 Dec 08:42:30 08:46:47 53° 100° (E) 08:51:09 145.935
PRISM 16 Dec 08:49:15 08:51:11 13° 58° (ENE) 08:53:07 437.425
FO-29 16 Dec 08:57:01 09:04:30 48° 263° (W) 09:12:01 435.910
CUTE-I 16 Dec 09:23:01 09:24:39 11° 310° (NW) 09:26:17 437.470
UWE-3 16 Dec 09:25:33 09:29:18 30° 293° (WNW) 09:33:09 435.000/436.395/437.385
NO-84 16 Dec 09:27:16 09:30:08 27° 353° (N) 09:33:12 435.350 FM
CUBEBUG 2 16 Dec 09:30:37 09:33:26 17° 298° (WNW) 09:36:17 437.445
SEEDS 16 Dec 09:32:41 09:35:18 16° 299° (WNW) 09:37:53 437.485
XW-2A 16 Dec 09:37:34 09:40:04 19° 294° (WNW) 09:42:34 145.665 - 145.685
AAUSAT CUBESAT 2 16 Dec 09:45:10 09:48:28 23° 296° (WNW) 09:51:44 437.432
HO-68 16 Dec 09:45:54 09:51:38 27° 306° (NW) 09:57:21 435.675
ZACube-1 16 Dec 09:46:11 09:50:06 33° 292° (WNW) 09:54:05 437.345
O/OREOS (USA 219) 16 Dec 09:55:15 09:59:21 31° 306° (NW) 10:03:27 437.305
Oscar 11 16 Dec 10:02:29 10:06:31 38° 291° (WNW) 10:10:33 .
Max Valier Satellite 16 Dec 10:14:16 10:17:54 47° 100° (E) 10:21:31 145.860
TIGRISAT 16 Dec 10:15:09 10:19:03 34° 263° (W) 10:22:57 435.000
NANOSAT C BR1 16 Dec 10:17:54 10:19:48 13° 58° (ENE) 10:21:41 145.865
UNISAT 6 16 Dec 10:19:11 10:22:55 29° 265° (W) 10:26:40 437.425
AO-73 16 Dec 10:19:33 10:22:41 20° 297° (WNW) 10:25:50 145.935
PRISM 16 Dec 10:21:41 10:25:51 81° 257° (WSW) 10:30:02 437.425
DELFI C3 16 Dec 10:28:10 10:32:08 83° 284° (WNW) 10:36:04 145.870
EO-79 16 Dec 10:33:12 10:36:14 20° 62° (ENE) 10:39:16 145.935-145.965
EO-88 16 Dec 10:37:42 10:41:21 61° 101° (E) 10:44:59 145.990 - 145.960
AIST 2D 16 Dec 10:39:25 10:42:51 53° 73° (ENE) 10:46:20 435.315
ESTCUBE 1 16 Dec 10:52:15 10:54:02 12° 87° (E) 10:55:48 437.505/2401.250
POLYITAN 1 16 Dec 10:55:55 10:59:37 31° 67° (ENE) 11:03:20 437.675
LO-87 16 Dec 11:02:52 11:05:09 16° 92° (E) 11:07:25 145.935 - 145.965
NO-84 16 Dec 11:04:55 11:08:04 31° 14° (NNE) 11:11:28 435.350 FM
nSIGHT-1 16 Dec 11:07:20 11:09:49 21° 140° (SE) 11:12:20 .
Oscar 19 16 Dec 11:14:24 11:15:20 10° 50° (NE) 11:16:17 437.125/150
QB50P2 16 Dec 11:21:16 11:25:24 63° 73° (ENE) 11:29:34 145.880/145.840
DUCHIFAT 1 16 Dec 11:23:20 11:27:17 45° 70° (ENE) 11:31:17 145.980
Max Valier Satellite 16 Dec 11:48:59 11:51:22 16° 297° (WNW) 11:53:45 145.860
NANOSAT C BR1 16 Dec 11:50:43 11:54:53 81° 254° (WSW) 11:59:06 145.865
ISS 16 Dec 11:55:44 11:58:50 39° 147° (SSE) 12:01:57 437.550
BUGSAT 1 16 Dec 11:56:39 12:00:02 26° 66° (ENE) 12:03:24 437.445
EO-79 16 Dec 12:07:37 12:11:40 48° 261° (W) 12:15:45 145.935-145.965
Gurwin Techsat 1B 16 Dec 12:08:26 12:12:27 22° 59° (ENE) 12:16:29 435.225
EO-88 16 Dec 12:12:46 12:14:31 13° 299° (WNW) 12:16:16 145.990 - 145.960
AIST 2D 16 Dec 12:14:56 12:16:21 12° 271° (W) 12:17:46 435.315
VELOX 1 16 Dec 12:16:43 12:18:49 13° 88° (E) 12:20:53 145.980
ESTCUBE 1 16 Dec 12:26:52 12:31:28 85° 283° (WNW) 12:35:59 437.505/2401.250
POLYITAN 1 16 Dec 12:31:47 12:35:24 28° 265° (W) 12:39:02 437.675
LO-87 16 Dec 12:35:24 12:38:43 39° 289° (WNW) 12:42:02 145.935 - 145.965
SPROUT 16 Dec 12:40:25 12:44:21 35° 97° (E) 12:48:15 437.525
NO-84 16 Dec 12:41:59 12:45:38 86° 219° (SW) 12:49:34 435.350 FM
nSIGHT-1 16 Dec 12:42:30 12:45:44 83° 337° (NNW) 12:48:58 .
AO-7 16 Dec 12:43:22 12:49:08 21° 42° (NE) 12:54:54 .
Oscar 19 16 Dec 12:48:34 12:53:35 57° 70° (ENE) 12:58:40 437.125/150
AO-91 16 Dec 12:51:58 12:56:35 55° 73° (ENE) 13:00:45 145.960
QB50P2 16 Dec 12:59:18 13:01:37 14° 271° (W) 13:03:55 145.880/145.840
DUCHIFAT 1 16 Dec 13:00:12 13:03:11 19° 268° (W) 13:06:11 145.980
YUBILEINY 16 Dec 13:17:24 13:25:30 38° 66° (ENE) 13:33:29 435.215
BUGSAT 1 16 Dec 13:31:42 13:35:18 31° 263° (W) 13:38:54 437.445
ISS 16 Dec 13:32:00 13:35:16 57° 346° (NNW) 13:38:32 437.550
Gurwin Techsat 1B 16 Dec 13:46:40 13:51:57 65° 258° (WSW) 13:57:16 435.225
VELOX 1 16 Dec 13:51:21 13:55:47 75° 286° (WNW) 14:00:10 145.980
ESTCUBE 1 16 Dec 14:05:35 14:07:31 13° 304° (NW) 14:09:28 437.505/2401.250
ITAMSAT 1 16 Dec 14:06:36 14:10:32 22° 59° (ENE) 14:14:27 435.822/435.867
RS-15 16 Dec 14:08:09 14:19:20 43° 109° (ESE) 14:30:25 29.354- 29.394
SPROUT 16 Dec 14:16:34 14:20:06 26° 295° (WNW) 14:23:36 437.525
M-CUBED/EXP-1 PRIME 16 Dec 14:17:39 14:21:48 39° 62° (ENE) 14:26:07 437.505
nSIGHT-1 16 Dec 14:19:04 14:22:10 43° 358° (N) 14:25:17 .
NO-84 16 Dec 14:20:02 14:22:32 17° 229° (SW) 14:25:08 435.350 FM
UKube-1 16 Dec 14:20:24 14:24:19 32° 97° (E) 14:28:10 .
SO-50 16 Dec 14:22:33 14:23:59 11° 108° (ESE) 14:25:25 436.795
Oscar 19 16 Dec 14:29:20 14:33:16 22° 269° (W) 14:37:15 437.125/150
AO-91 16 Dec 14:29:59 14:33:15 18° 267° (W) 14:36:19 145.960
MOZHAYETS 4 16 Dec 14:31:39 14:33:19 12° 86° (E) 14:34:58
AO-7 16 Dec 14:32:17 14:40:31 69° 65° (ENE) 14:48:48 .
50 SAT 16 Dec 14:37:51 14:41:01 85° 285° (WNW) 14:44:10 437.505
DX 1 16 Dec 14:40:22 14:44:45 81° 104° (ESE) 14:49:05 434.975-435.025
ISS 16 Dec 15:08:52 15:12:04 45° 6° (N) 15:15:16 437.550
BEESAT 16 Dec 15:09:55 15:13:18 19° 91° (E) 15:16:38 436.000
YUBILEINY 16 Dec 15:14:10 15:22:46 59° 269° (W) 15:31:17 435.215
VELOX 1 16 Dec 15:30:20 15:31:26 11° 305° (NW) 15:32:31 145.980
ITUPSAT 1 16 Dec 15:39:04 15:43:25 33° 97° (E) 15:47:44 437.325
ITAMSAT 1 16 Dec 15:44:23 15:49:32 64° 257° (WSW) 15:54:45 435.822/435.867
M-CUBED/EXP-1 PRIME 16 Dec 15:52:24 15:56:14 28° 261° (W) 16:00:13 437.505
nSIGHT-1 16 Dec 15:55:27 15:58:40 68° 18° (NNE) 16:01:52 .
UKube-1 16 Dec 15:56:31 16:00:15 29° 295° (WNW) 16:03:58 .
DOVE 4 16 Dec 15:58:26 16:03:19 42° 69° (ENE) 16:08:02 437.250
CUBESAT XI-V 16 Dec 15:59:05 16:02:48 22° 92° (E) 16:06:29 437.345
SO-50 16 Dec 15:59:11 16:03:39 81° 126° (SE) 16:08:12 436.795
MOZHAYETS 4 16 Dec 16:06:28 16:11:08 89° 283° (WNW) 16:15:46
DX 1 16 Dec 16:18:06 16:20:20 14° 303° (WNW) 16:22:33 434.975-435.025
RS-15 16 Dec 16:18:53 16:31:15 73° 314° (NW) 16:43:25 29.354- 29.394
XW-2C 16 Dec 16:23:44 16:25:07 12° 59° (ENE) 16:26:31 145.795 - 145.815
AO-7 16 Dec 16:26:42 16:33:53 32° 266° (W) 16:41:08 .
O/OREOS (USA 219) 16 Dec 16:43:06 16:46:28 20° 48° (NE) 16:49:48 437.305
HO-68 16 Dec 16:44:32 16:49:37 21° 50° (NE) 16:54:42 435.675
ISS 16 Dec 16:45:25 16:48:44 76° 204° (SSW) 16:52:00 437.550
BEESAT 16 Dec 16:46:45 16:51:27 59° 289° (WNW) 16:56:07 436.000
LilacSat-2 16 Dec 17:00:44 17:04:04 29° 67° (ENE) 17:07:26 437.200
NUDT-PHONESAT 16 Dec 17:06:55 17:09:47 22° 65° (ENE) 17:12:40 437.300
XW-2D 16 Dec 17:11:45 17:15:14 35° 70° (ENE) 17:18:46 145.860 - 145.880
YUBILEINY 16 Dec 17:14:15 17:17:32 13° 292° (WNW) 17:20:47 435.215
KAITUO 1B 16 Dec 17:14:21 17:17:33 27° 67° (ENE) 17:20:48 145.475/437.950
ITUPSAT 1 16 Dec 17:16:56 17:21:12 33° 295° (WNW) 17:25:28 437.325
CUTE-I 16 Dec 17:26:04 17:31:15 50° 68° (ENE) 17:36:25 437.470
XW-2B 16 Dec 17:27:29 17:31:10 51° 72° (ENE) 17:34:54 145.730 - 145.750
PCSat 16 Dec 17:28:30 17:30:55 13° 103° (ESE) 17:33:19 145.827
nSIGHT-1 16 Dec 17:31:52 17:34:41 28° 217° (SW) 17:37:29 .
CUBESAT XI-V 16 Dec 17:35:51 17:40:24 48° 290° (WNW) 17:44:54 437.345
DOVE 4 16 Dec 17:36:28 17:41:04 30° 266° (W) 17:45:32 437.250
XW-2F 16 Dec 17:37:26 17:41:10 63° 74° (ENE) 17:44:58 145.980 - 146.000
KKS-1 16 Dec 17:39:57 17:44:10 41° 99° (E) 17:48:20 437.445
SO-50 16 Dec 17:41:05 17:44:39 22° 328° (NNW) 17:48:15 436.795
CUTE 1.7 + AOD 2 16 Dec 17:43:19 17:46:44 24° 64° (ENE) 17:50:10 437.475
MOZHAYETS 4 16 Dec 17:45:21 17:47:35 14° 303° (WNW) 17:49:50
XW-2C 16 Dec 17:54:55 17:58:43 76° 257° (WSW) 18:02:34 145.795 - 145.815
STARS 16 Dec 18:16:23 18:20:30 39° 98° (E) 18:24:35 437.465
O/OREOS (USA 219) 16 Dec 18:21:50 18:26:19 63° 248° (WSW) 18:30:44 437.305
ISS 16 Dec 18:22:45 18:24:45 15° 223° (SW) 18:26:45 437.550
HO-68 16 Dec 18:29:10 18:36:22 82° 71° (ENE) 18:43:35 435.675
RS-15 16 Dec 18:34:55 18:46:11 39° 344° (NNW) 18:57:06 29.354- 29.394
LilacSat-2 16 Dec 18:35:06 18:38:19 26° 266° (W) 18:41:35 437.200
XW-2A 16 Dec 18:39:07 18:41:37 20° 66° (ENE) 18:44:08 145.665 - 145.685
NUDT-PHONESAT 16 Dec 18:40:05 18:43:26 33° 263° (W) 18:46:51 437.300
XW-2D 16 Dec 18:46:38 18:49:31 20° 267° (W) 18:52:25 145.860 - 145.880
KAITUO 1B 16 Dec 18:48:17 18:51:29 26° 265° (W) 18:54:43 145.475/437.950
UWE-3 16 Dec 18:49:26 18:53:15 37° 69° (ENE) 18:57:05 435.000/436.395/437.385
SEEDS 16 Dec 18:50:23 18:54:35 68° 73° (ENE) 18:58:49 437.485
CUBEBUG 2 16 Dec 18:54:22 18:58:32 73° 75° (ENE) 19:02:41 437.445
STRAND 1 16 Dec 18:54:49 18:57:46 15° 88° (E) 19:00:41 437.568
AAUSAT CUBESAT 2 16 Dec 19:02:20 19:06:15 41° 70° (ENE) 19:10:13 437.432
XW-2B 16 Dec 19:03:28 19:05:38 15° 270° (W) 19:07:50 145.730 - 145.750
CUTE-I 16 Dec 19:07:04 19:11:32 26° 267° (W) 19:16:02 437.470
PCSat 16 Dec 19:08:00 19:13:24 78° 122° (ESE) 19:18:51 145.827
ZACube-1 16 Dec 19:09:14 19:12:56 33° 68° (ENE) 19:16:41 437.345
BEESAT 3 16 Dec 19:09:49 19:11:44 13° 111° (ESE) 19:13:39 437.485
XW-2F 16 Dec 19:14:11 19:15:42 12° 272° (W) 19:17:12 145.980 - 146.000
KKS-1 16 Dec 19:16:55 19:20:31 25° 297° (WNW) 19:24:06 437.445
CUTE 1.7 + AOD 2 16 Dec 19:18:22 19:22:22 39° 263° (W) 19:26:25 437.475
Oscar 11 16 Dec 19:24:41 19:28:27 30° 66° (ENE) 19:32:14 .
SO-50 16 Dec 19:25:44 19:26:48 11° 352° (N) 19:27:53 436.795
AO-73 16 Dec 19:41:15 19:45:19 61° 73° (ENE) 19:49:27 145.935
DELFI C3 16 Dec 19:45:07 19:46:03 11° 58° (ENE) 19:46:59 145.870
STARS 16 Dec 19:53:05 19:56:39 25° 296° (WNW) 20:00:11 437.465
BEESAT 2 16 Dec 19:56:10 19:57:32 11° 109° (ESE) 19:58:54 435.950
FO-29 16 Dec 20:04:07 20:09:44 26° 88° (E) 20:14:50 435.910
XW-2A 16 Dec 20:11:10 20:14:09 29° 264° (W) 20:17:10 145.665 - 145.685
HO-68 16 Dec 20:19:30 20:24:54 22° 270° (W) 20:30:19 435.675
UWE-3 16 Dec 20:26:33 20:29:50 22° 267° (W) 20:33:09 435.000/436.395/437.385
SEEDS 16 Dec 20:28:35 20:30:44 14° 272° (W) 20:32:53 437.485
STRAND 1 16 Dec 20:32:27 20:37:34 80° 287° (WNW) 20:42:40 437.568
CUBEBUG 2 16 Dec 20:34:05 20:35:40 12° 272° (W) 20:37:15 437.445
AAUSAT CUBESAT 2 16 Dec 20:38:38 20:41:52 21° 268° (W) 20:45:07 437.432
BEESAT 3 16 Dec 20:44:42 20:48:42 78° 309° (NW) 20:52:43 437.485
ZACube-1 16 Dec 20:45:48 20:49:16 26° 266° (W) 20:52:47 437.345
RS-15 16 Dec 20:51:22 21:02:35 40° 18° (NNE) 21:13:16 29.354- 29.394
PCSat 16 Dec 20:52:55 20:57:24 25° 323° (NW) 21:01:54 145.827
Max Valier Satellite 16 Dec 20:56:12 20:59:33 35° 70° (ENE) 21:02:56 145.860
Oscar 11 16 Dec 21:00:40 21:04:31 31° 265° (W) 21:08:25 .
SO-50 16 Dec 21:07:06 21:09:19 13° 18° (NNE) 21:11:32 436.795
AO-85 16 Dec 21:13:19 21:15:57 17° 112° (ESE) 21:18:40 145.980
DELFI C3 16 Dec 21:16:07 21:20:07 88° 76° (ENE) 21:24:08 145.870
EO-88 16 Dec 21:18:15 21:21:42 43° 72° (ENE) 21:25:13 145.990 - 145.960
AO-73 16 Dec 21:19:46 21:21:59 14° 271° (W) 21:24:14 145.935
BEESAT 2 16 Dec 21:30:34 21:34:36 89° 329° (NNW) 21:38:41 435.950
LO-87 16 Dec 21:43:01 21:44:34 13° 62° (ENE) 21:46:08 145.935 - 145.965
FO-29 16 Dec 21:48:31 21:55:27 64° 291° (WNW) 22:01:31 435.910
ESTCUBE 1 16 Dec 21:54:34 21:57:41 19° 60° (ENE) 22:00:48 437.505/2401.250
PRISM 16 Dec 22:01:50 22:02:38 10° 87° (E) 22:03:26 437.425
TIGRISAT 16 Dec 22:02:09 22:06:10 35° 97° (E) 22:10:14 435.000
UNISAT 6 16 Dec 22:06:03 22:10:13 42° 99° (E) 22:14:25 437.425
STRAND 1 16 Dec 22:13:23 22:15:57 14° 306° (NW) 22:18:31 437.568
BEESAT 3 16 Dec 22:24:17 22:26:52 16° 329° (NNW) 22:29:28 437.485
Max Valier Satellite 16 Dec 22:30:48 22:33:29 19° 268° (W) 22:36:12 145.860
PCSat 16 Dec 22:41:12 22:42:49 11° 348° (NNW) 22:44:26 145.827
SO-50 16 Dec 22:46:46 22:51:05 36° 41° (NE) 22:55:26 436.795
AO-85 16 Dec 22:51:56 22:55:52 58° 313° (NW) 23:00:04 145.980
EO-88 16 Dec 22:53:19 22:55:34 16° 269° (W) 22:57:51 145.990 - 145.960
RS-15 16 Dec 23:05:06 23:17:09 79° 49° (NE) 23:28:28 29.354- 29.394
BEESAT 2 16 Dec 23:10:02 23:12:53 18° 328° (NNW) 23:15:45 435.950
LO-87 16 Dec 23:14:02 23:17:31 58° 259° (W) 23:21:02 145.935 - 145.965
FALCONSAT 3 16 Dec 23:14:08 23:15:13 11° 175° (S) 23:16:16 435.103
VELOX 1 16 Dec 23:16:46 23:19:58 20° 61° (ENE) 23:23:12 145.980
ESTCUBE 1 16 Dec 23:29:34 23:34:02 61° 258° (WSW) 23:38:33 437.505/2401.250
NANOSAT C BR1 16 Dec 23:32:53 23:34:42 12° 88° (E) 23:36:31 145.865
AIST 2D 16 Dec 23:33:32 23:36:55 39° 98° (E) 23:40:16 435.315
PRISM 16 Dec 23:34:21 23:38:28 82° 286° (WNW) 23:42:33 437.425
FO-29 16 Dec 23:35:09 23:39:02 16° 314° (NW) 23:42:42 435.910
SPROUT 16 Dec 23:36:44 23:40:44 42° 70° (ENE) 23:44:46 437.525
TIGRISAT 16 Dec 23:39:04 23:42:45 27° 294° (WNW) 23:46:29 435.000
UNISAT 6 16 Dec 23:43:14 23:46:43 24° 296° (WNW) 23:50:14 437.425
EO-79 16 Dec 23:48:52 23:52:03 21° 92° (E) 23:55:14 145.935-145.965
DX 1 17 Dec 00:05:10 00:07:41 15° 58° (ENE) 00:10:11 434.975-435.025
POLYITAN 1 17 Dec 00:12:06 00:15:59 34° 97° (E) 00:19:52 437.675
PCSat 17 Dec 00:26:44 00:28:50 12° 16° (NNE) 00:30:56 145.827
SO-50 17 Dec 00:27:13 00:31:37 41° 240° (WSW) 00:36:02 436.795
AO-85 17 Dec 00:34:46 00:37:13 15° 336° (NNW) 00:39:46 145.980
QB50P2 17 Dec 00:37:50 00:42:05 72° 103° (ESE) 00:46:18 145.880/145.840
DUCHIFAT 1 17 Dec 00:38:44 00:42:50 50° 100° (E) 00:46:55 145.980
VELOX 1 17 Dec 00:51:41 00:56:03 54° 259° (W) 01:00:27 145.980
Oscar 19 17 Dec 00:57:41 01:00:39 15° 88° (E) 01:03:36 437.125/150
NANOSAT C BR1 17 Dec 01:06:41 01:10:54 73° 286° (WNW) 01:15:05 145.865
50 SAT 17 Dec 01:06:44 01:09:47 46° 72° (ENE) 01:12:51 437.505
AIST 2D 17 Dec 01:07:25 01:09:48 17° 296° (WNW) 01:12:11 435.315
BUGSAT 1 17 Dec 01:09:15 01:12:42 26° 95° (E) 01:16:09 437.445
PRISM 17 Dec 01:12:10 01:13:00 11° 304° (NW) 01:13:52 437.425
SPROUT 17 Dec 01:13:34 01:16:49 21° 267° (W) 01:20:04 437.525
UKube-1 17 Dec 01:17:50 01:21:56 44° 69° (ENE) 01:26:03 .
RS-15 17 Dec 01:18:24 01:28:31 36° 254° (WSW) 01:38:13 29.354- 29.394
EO-79 17 Dec 01:24:00 01:28:00 43° 290° (WNW) 01:32:00 145.935-145.965
